Weather History for Cozumel, Mexico

Change the Weather History Date:

Monday, October 13, 2014

  Actual Average Record
Temperature  
Mean Temperature 76 °F -  
Max Temperature 84 °F 87 °F 91 °F (2003)
Min Temperature 69 °F 76 °F 68 °F (2013)
Cooling Degree Days 12    
Growing Degree Days 26 (Base 50)    
Moisture  
Dew Point 75 °F    
Average Humidity 97    
Maximum Humidity 100    
Minimum Humidity 79    
Precipitation  
Precipitation 2.10 in - - ()
Sea Level Pressure  
Sea Level Pressure 29.92 in    
Wind  
Wind Speed 3 mph ()    
Max Wind Speed 14 mph    
Max Gust Speed 22 mph    
Visibility 7.2 miles    
Events Rain    
Averages and records for this station are not official NWS values.
T = Trace of Precipitation, MM = Missing Value Source: Averaged Metar Reports

Daily Weather History Graph

Daily Weather History Graph

Search for Another Location

Airport:

Trip Planner

Search our weather history database for the weather conditions in past years. The results will help you decide how hot, cold, wet, or windy it might be!

Date:

Astronomy

Oct. 13, 2014 Rise Set
Actual Time 6:42 AM CDT 6:25 PM CDT
Civil Twilight 6:19 AM CDT 6:47 PM CDT
Nautical Twilight 5:54 AM CDT 7:13 PM CDT
Astronomical Twilight 5:28 AM CDT 7:38 PM CDT
Moon 10:59 PM CDT (10/13) 11:32 AM CDT (10/13)
Length of Visible Light 12h 27m
Length of Day
11h 43m
Waning Gibbous, 70% of the Moon is Illuminated
Oct 13
Waning Gibbous
Oct 15
Last Quarter
Oct 23
New
Oct 30
First Quarter
Nov 6
Full

Hourly Weather History & Observations

Time (CDT) Temp. Heat Index Dew Point Humidity Pressure Visibility Wind Dir Wind Speed Gust Speed Precip Events Conditions
12:49 AM 73.4 °F - 73.4 °F 100% 29.91 in 7.0 mi Calm Calm - N/A   Scattered Clouds
1:42 AM 71.6 °F - 71.6 °F 100% 29.92 in 7.0 mi Calm Calm - N/A   Scattered Clouds
2:40 AM 71.6 °F - 71.6 °F 100% 29.91 in 7.0 mi Calm Calm - N/A   Scattered Clouds
3:40 AM 71.6 °F - 71.6 °F 100% 29.92 in 7.0 mi Calm Calm - N/A   Scattered Clouds
4:40 AM 71.6 °F - 71.6 °F 100% 29.90 in 7.0 mi Calm Calm - N/A   Scattered Clouds
5:50 AM 69.8 °F - 69.8 °F 100% 29.91 in 7.0 mi Calm Calm - N/A   Scattered Clouds
6:44 AM 69.8 °F - 69.8 °F 100% 29.91 in 7.0 mi East 3.5 mph - N/A   Scattered Clouds
7:41 AM 73.4 °F - 73.4 °F 100% 29.92 in 8.0 mi Calm Calm - N/A   Clear
8:41 AM 78.8 °F - 77.0 °F 94% 29.93 in 8.0 mi SE 5.8 mph - N/A   Clear
9:42 AM 82.4 °F 90.9 °F 77.0 °F 84% 29.97 in 8.0 mi ESE 10.4 mph - N/A   Scattered Clouds
10:45 AM 82.4 °F 90.9 °F 77.0 °F 84% 29.94 in 8.0 mi ESE 13.8 mph - N/A   Scattered Clouds
11:40 AM 84.2 °F 94.1 °F 77.0 °F 79% 29.94 in 8.0 mi ESE 12.7 mph - N/A   Mostly Cloudy
12:44 PM 77.0 °F - 75.2 °F 94% 29.92 in 5.0 mi East 10.4 mph 21.9 mph N/A Rain Light Rain
1:47 PM 77.0 °F - 77.0 °F 100% 29.91 in 7.0 mi East 4.6 mph 16.1 mph N/A   Mostly Cloudy
2:44 PM 80.6 °F 87.1 °F 77.0 °F 89% 29.88 in 7.0 mi ESE 12.7 mph - N/A   Mostly Cloudy
3:48 PM 77.0 °F - 77.0 °F 100% 29.91 in 7.0 mi SE 5.8 mph - N/A   Mostly Cloudy
4:45 PM 77.0 °F - 77.0 °F 100% 29.89 in 8.0 mi Calm Calm - N/A   Mostly Cloudy
5:51 PM 78.8 °F - 77.0 °F 94% 29.88 in 8.0 mi ESE 5.8 mph - N/A   Mostly Cloudy
6:48 PM 77.0 °F - 77.0 °F 100% 29.87 in 7.0 mi ESE 4.6 mph - N/A   Partly Cloudy
7:55 PM 75.2 °F - 75.2 °F 100% 29.91 in 7.0 mi Calm Calm - N/A   Scattered Clouds
8:50 PM 73.4 °F - 73.4 °F 100% 29.92 in 7.0 mi SSE 3.5 mph - N/A   Scattered Clouds
9:49 PM 75.2 °F - 75.2 °F 100% 29.97 in 6.0 mi SE 4.6 mph - N/A   Scattered Clouds
10:40 PM 75.2 °F - 75.2 °F 100% 29.94 in 7.0 mi Calm Calm - N/A   Partly Cloudy
11:44 PM 73.4 °F - 73.4 °F 100% 29.94 in 7.0 mi ESE 3.5 mph - N/A   Partly Cloudy